User: anonymous   Login
Location: Unspecified
(0.0000°N, 0.0000°E)
Time: 07:04:22
(UTC+02:00)
Language:

ATLAS V CENTAUR R/B - Orbit

View from above orbital plane
View from above orbital plane
View from above satellite
View from above satellite

Ground track
Ground track

The orbit data is extracted from the following two-line orbital elements,

1 27500U 02038B   15210.29028110  .00005851  00000-0  10306-2 0  9990
2 27500 018.1247 064.5389 6872158 358.3913 342.1018 02.81780390106018
Epoch (UTC): 29 July 2015 06:58:00
Eccentricity: 0.6872158
inclination: 18.1247°
perigee height: 244 km
apogee height: 29346 km
right ascension of ascending node: 64.5389°
argument of perigee: 358.3913°
revolutions per day: 2.81780390
mean anomaly at epoch: 342.1018°
orbit number at epoch: 10601

The dashed part of the orbit path shows where the satellite is in the earth's shadow,  

DLR